Location: Chandrammap?lem
(16.9200°N, 81.0051°E)
Time: 13:45:23
(UTC+00:00)

Hubble Space Telescope - Pass Details

Date: 29 May 2024
Orbit: 510 x 514 km, 28.5° (Epoch: 18 June)

Event Time Altitude Azimuth Distance (km) Brightness Sun altitude
Rises 14:02:21 0° 286° (WNW) 2,611 6.0 -13.2°
Reaches altitude 10° 14:05:07 10° 305° (NW) 1,724 4.8 -13.8°
Maximum altitude 14:07:57 18° 350° (N) 1,282 3.2 -14.4°
Drops below altitude 10° 14:10:46 10° 36° (NE) 1,722 3.3 -15.0°
Enters shadow 14:12:51 - 52° (NE) 2,370 3.8 -15.4°
